MET-3/5
1 21655U 91056A   05335.76810152  .00000051  00000-0  10000-3 0  9772
2 21655 082.5588 040.2733 0013261 170.1103 190.0337 13.17002646687376
MET-2/21
1 22782U 93055A   05335.53774187 -.00000236  00000-0 -22685-3 0  3668
2 22782 082.5450 128.2509 0022616 018.3364 341.8580 13.83598227618716
OKEAN-4
1 23317U 94066A   05334.82572474  .00000319  00000-0  36892-4 0 08001
2 23317 082.5386 102.0113 0021145 311.4104 048.5296 14.82269687600592
NOAA-14
1 23455U 94089A   05335.33171158  .00000289  00000-0  17781-3 0  8911
2 23455 099.0690 026.2109 0008720 247.0776 112.9478 14.13617652563118
SICH-1
1 23657U 95046A   05334.82129500  .00000335  00000-0  39821-4 0 06051
2 23657 082.5295 242.8594 0022830 298.2698 061.6211 14.81274829552622
NOAA-15
1 25338U 98030A   05335.30737395  .00000066  00000-0  46780-4 0  2943
2 25338 098.5147 338.5737 0009908 228.5418 131.4905 14.24551067392540
RESURS
1 25394U 98043A   05335.85395123  .00000027  00000-0  30312-4 0  2422
2 25394 098.5214 040.1354 0002139 050.4698 309.6667 14.24088660384313
FENGYUN1
1 25730U 99025A   05335.67550846  .00000084  00000-0  69250-4 0  5926
2 25730 098.6143 330.8304 0014674 347.0651 013.0206 14.11804570338141
OKEAN-0
1 25860U 99039A   05335.58093846  .00000095  00000-0  21922-4 0  6047
2 25860 097.7437 354.0190 0001739 062.5623 297.5767 14.73317506342656
NOAA-16
1 26536U 00055A   05335.34731713 -.00000080  00000-0 -18540-4 0  6413
2 26536 099.0381 294.9464 0010092 320.5371 039.5046 14.12294529267657
NOAA-17
1 27453U 02032A   05335.34277778 -.00000025  00000-0  79579-5 0  6659
2 27453 098.6461 046.1933 0010960 291.2006 068.8001 14.23727120178625
NOAA-18
1 28654U 05018A   05335.35607169 -.00000116  00000-0 -40767-4 0  2601
2 28654 098.7658 278.1078 0015148 062.9274 297.3448 14.10905089 27487
HUBBLE
1 20580U 90037B   05334.94950349  .00000585  00000-0  32990-4 0 05005
2 20580 028.4686 262.0490 0003831 236.0910 123.9313 14.99907858655301
UARS
1 21701U 91063B   05336.08623538  .00091750  00000-0  19553-2 0  6198
2 21701 056.9721 220.2491 0129089 192.2118 176.5742 15.35819516778891
PO-34
1 25520U 98064B   05335.86989949  .00000673  00000-0  23823-4 0  3351
2 25520 028.4580 271.0204 0005538 247.9995 112.0010 15.16530630392060
ISS
1 25544U 98067A   05335.99080213  .00011513  00000-0  88193-4 0  8621
2 25544 051.6437 120.8878 0009160 353.0169 107.6631 15.72622902402090
OO-38
1 26063U 00004C   05334.75291034  .00000037  00000-0  33004-4 0  4918
2 26063 100.1919 225.0543 0036672 306.9172 052.8664 14.35743925306196
NO-45
1 26932U 01043D   05334.73567210  .00000217  00000-0  11722-3 0 01826
2 26932 067.0554 158.5101 0004215 288.9316 071.1327 14.29509043217605
